Time,TemperatureF,DewpointF,PressureIn,WindDirection,WindDirectionDegrees,WindSpeedMPH,WindSpeedGustMPH,Humidity,HourlyPrecipIn,Conditions,Clouds,dailyrainin,SoftwareType,DateUTC
2013-03-16 00:00:00,55.0,49.0,29.99,SSW,202,15.0,22.0,80,0.00, ,,-99.99,VWS V12.07,2013-03-16 04:00:00,
2013-03-16 00:02:00,54.8,49.1,29.99,WSW,244,19.8,22.0,81,0.00, ,,-99.99,VWS V12.07,2013-03-16 04:02:00,
2013-03-16 00:03:00,54.9,49.1,29.99,SSW,212,12.7,22.0,81,0.00, ,,-99.99,VWS V12.07,2013-03-16 04:03:00,
2013-03-16 00:07:00,54.5,48.9,29.99,WSW,249,9.8,22.0,81,0.00, ,,-99.99,VWS V12.07,2013-03-16 04:07:00,
2013-03-16 00:12:00,55.0,49.3,29.98,SW,229,17.6,22.0,81,0.00, ,,-99.99,VWS V12.07,2013-03-16 04:12:00,
2013-03-16 00:17:00,54.9,49.4,29.98,SW,233,15.8,17.9,82,0.00, ,,-99.99,VWS V12.07,2013-03-16 04:17:00,
2013-03-16 00:22:00,54.9,49.2,29.98,SSW,199,17.7,22.6,81,0.00, ,,-99.99,VWS V12.07,2013-03-16 04:22:00,
2013-03-16 00:27:00,55.1,49.5,29.98,SW,229,11.1,23.1,81,0.00, ,,-99.99,VWS V12.07,2013-03-16 04:27:00,
2013-03-16 00:32:00,55.0,49.3,29.98,SW,228,20.9,23.1,81,0.00, ,,-99.99,VWS V12.07,2013-03-16 04:32:00,
2013-03-16 00:37:00,55.2,49.8,29.98,SW,216,15.3,17.4,82,0.00, ,,-99.99,VWS V12.07,2013-03-16 04:37:00,
2013-03-16 00:42:00,55.0,49.3,29.98,SW,232,15.0,21.9,81,0.00, ,,-99.99,VWS V12.07,2013-03-16 04:42:00,
2013-03-16 00:47:00,55.0,49.3,29.97,SW,222,14.5,21.9,81,0.00, ,,-99.99,VWS V12.07,2013-03-16 04:47:00,
2013-03-16 00:52:00,55.2,49.3,29.97,SW,223,15.0,22.3,80,0.00, ,,-99.99,VWS V12.07,2013-03-16 04:52:00,
2013-03-16 00:57:00,55.5,49.4,29.97,SW,226,13.3,16.3,80,0.00, ,,-99.99,VWS V12.07,2013-03-16 04:57:00,
2013-03-16 01:02:00,55.5,49.1,29.97,SW,223,16.6,22.4,79,0.00, ,,-99.99,VWS V12.07,2013-03-16 05:02:00,
2013-03-16 01:07:00,55.3,48.8,29.97,SW,229,17.3,25.4,79,0.00, ,,-99.99,VWS V12.07,2013-03-16 05:07:00,
2013-03-16 01:12:00,55.4,49.1,29.97,SW,218,15.6,25.4,79,0.00, ,,-99.99,VWS V12.07,2013-03-16 05:12:00,
2013-03-16 01:17:00,55.4,49.2,29.97,SW,233,13.6,13.6,80,0.00, ,,-99.99,VWS V12.07,2013-03-16 05:17:00,
2013-03-16 01:22:00,55.4,49.3,29.96,SSW,205,17.6,21.3,80,0.00, ,,-99.99,VWS V12.07,2013-03-16 05:22:00,
2013-03-16 01:27:00,55.6,49.7,29.96,SW,233,14.8,22.3,81,0.00, ,,-99.99,VWS V12.07,2013-03-16 05:27:00,
2013-03-16 01:32:00,55.1,49.1,29.96,WSW,244,15.2,24.3,80,0.00, ,,-99.99,VWS V12.07,2013-03-16 05:32:00,
2013-03-16 01:37:00,55.4,49.7,29.96,WSW,246,13.2,15.0,81,0.00, ,,-99.99,VWS V12.07,2013-03-16 05:37:00,
2013-03-16 01:43:00,55.4,49.8,29.96,SW,232,10.4,24.4,81,0.00, ,,-99.99,VWS V12.07,2013-03-16 05:43:00,
2013-03-16 01:48:00,55.3,49.5,29.96,West,260,12.5,24.4,81,0.00, ,,-99.99,VWS V12.07,2013-03-16 05:48:00,
2013-03-16 01:53:00,55.6,49.9,29.95,SW,218,15.0,24.4,81,0.00, ,,-99.99,VWS V12.07,2013-03-16 05:53:00,
2013-03-16 01:58:00,55.6,50.0,29.95,South,191,15.8,17.5,82,0.00, ,,-99.99,VWS V12.07,2013-03-16 05:58:00,
2013-03-16 02:03:00,55.4,49.8,29.95,SW,222,17.0,23.7,82,0.00, ,,-99.99,VWS V12.07,2013-03-16 06:03:00,
2013-03-16 02:08:00,55.5,49.8,29.95,SW,233,18.9,25.5,81,0.00, ,,-99.99,VWS V12.07,2013-03-16 06:08:00,
2013-03-16 02:13:00,55.5,50.1,29.95,SW,226,17.1,25.5,82,0.00, ,,-99.99,VWS V12.07,2013-03-16 06:13:00,
2013-03-16 02:18:00,55.7,50.2,29.95,WSW,240,17.0,22.8,82,0.00, ,,-99.99,VWS V12.07,2013-03-16 06:18:00,
2013-03-16 02:23:00,55.5,50.1,29.94,SW,233,20.8,23.4,82,0.00, ,,-99.99,VWS V12.07,2013-03-16 06:23:00,
2013-03-16 02:28:00,55.3,49.7,29.94,WSW,251,15.0,23.4,82,0.00, ,,-99.99,VWS V12.07,2013-03-16 06:28:00,
2013-03-16 02:33:00,55.9,50.3,29.94,SW,219,10.7,25.3,81,0.00, ,,-99.99,VWS V12.07,2013-03-16 06:33:00,
2013-03-16 02:38:00,55.7,50.2,29.94,WSW,242,16.0,20.8,82,0.00, ,,-99.99,VWS V12.07,2013-03-16 06:38:00,
2013-03-16 02:43:00,55.6,50.0,29.94,SW,229,16.6,25.0,82,0.00, ,,-99.99,VWS V12.07,2013-03-16 06:43:00,
2013-03-16 02:48:00,56.0,50.4,29.94,West,260,14.4,26.6,82,0.00, ,,-99.99,VWS V12.07,2013-03-16 06:48:00,
2013-03-16 02:53:00,55.8,50.3,29.94,SW,229,16.5,26.6,82,0.00, ,,-99.99,VWS V12.07,2013-03-16 06:53:00,
2013-03-16 02:58:00,55.9,50.2,29.93,WSW,246,12.4,29.5,81,0.00, ,,-99.99,VWS V12.07,2013-03-16 06:58:00,
2013-03-16 03:04:00,55.9,50.3,29.93,SW,220,16.4,29.5,81,0.00, ,,-99.99,VWS V12.07,2013-03-16 07:04:00,
2013-03-16 03:09:00,55.9,50.6,29.93,SSW,198,14.7,29.5,82,0.00, ,,-99.99,VWS V12.07,2013-03-16 07:09:00,
2013-03-16 03:14:00,56.2,50.8,29.93,SW,228,20.2,29.5,82,0.00, ,,-99.99,VWS V12.07,2013-03-16 07:14:00,
2013-03-16 03:19:00,56.3,50.8,29.92,WSW,247,12.8,26.7,82,0.00, ,,-99.99,VWS V12.07,2013-03-16 07:19:00,
2013-03-16 03:24:00,56.2,50.8,29.92,SSW,208,15.7,26.7,82,0.00, ,,-99.99,VWS V12.07,2013-03-16 07:24:00,
2013-03-16 03:29:00,56.2,51.0,29.92,WSW,247,18.5,27.7,82,0.00, ,,-99.99,VWS V12.07,2013-03-16 07:29:00,
2013-03-16 03:34:00,56.2,51.0,29.92,SSW,212,13.1,27.7,82,0.00, ,,-99.99,VWS V12.07,2013-03-16 07:34:00,
2013-03-16 03:39:00,56.0,50.6,29.92,WSW,240,18.5,25.4,82,0.00, ,,-99.99,VWS V12.07,2013-03-16 07:39:00,
2013-03-16 03:44:00,56.0,50.7,29.91,SW,220,18.0,25.9,82,0.00, ,,-99.99,VWS V12.07,2013-03-16 07:44:00,
2013-03-16 03:49:00,56.2,51.0,29.91,SW,235,17.4,26.0,83,0.00, ,,-99.99,VWS V12.07,2013-03-16 07:49:00,
2013-03-16 03:54:00,55.9,50.6,29.91,WSW,244,19.0,27.5,82,0.00, ,,-99.99,VWS V12.07,2013-03-16 07:54:00,
2013-03-16 03:59:00,56.4,51.5,29.91,SW,225,14.4,19.0,84,0.00, ,,-99.99,VWS V12.07,2013-03-16 07:59:00,
2013-03-16 04:04:00,56.0,51.1,29.91,SW,236,14.6,25.0,84,0.00, ,,-99.99,VWS V12.07,2013-03-16 08:04:00,
2013-03-16 04:09:00,56.3,51.3,29.90,WSW,250,19.8,26.7,83,0.00, ,,-99.99,VWS V12.07,2013-03-16 08:09:00,
2013-03-16 04:14:00,56.3,51.6,29.90,WSW,244,10.9,26.7,84,0.00, ,,-99.99,VWS V12.07,2013-03-16 08:14:00,
2013-03-16 04:19:00,56.3,51.6,29.90,WSW,246,17.6,22.3,84,0.00, ,,-99.99,VWS V12.07,2013-03-16 08:19:00,
2013-03-16 04:24:00,56.5,51.7,29.90,SW,222,16.7,26.6,84,0.00, ,,-99.99,VWS V12.07,2013-03-16 08:24:00,
2013-03-16 04:29:00,56.1,51.4,29.90,SW,230,16.5,26.6,84,0.00, ,,-99.99,VWS V12.07,2013-03-16 08:29:00,
2013-03-16 04:34:00,56.1,51.7,29.90,WSW,237,16.5,26.6,85,0.00, ,,-99.99,VWS V12.07,2013-03-16 08:34:00,
2013-03-16 04:39:00,55.9,51.6,29.89,WSW,247,16.7,23.2,86,0.00, ,,-99.99,VWS V12.07,2013-03-16 08:39:00,
2013-03-16 04:44:00,56.2,52.1,29.89,WSW,247,12.2,29.7,86,0.00, ,,-99.99,VWS V12.07,2013-03-16 08:44:00,
2013-03-16 04:49:00,55.7,51.8,29.89,WSW,237,15.7,29.7,87,0.00, ,,-99.99,VWS V12.07,2013-03-16 08:49:00,
2013-03-16 04:54:00,55.6,51.7,29.89,WSW,244,14.4,29.7,87,0.00, ,,-99.99,VWS V12.07,2013-03-16 08:54:00,
2013-03-16 04:59:00,55.8,52.1,29.89,WSW,242,18.3,26.7,87,0.00, ,,-99.99,VWS V12.07,2013-03-16 08:59:00,
2013-03-16 05:04:00,55.7,52.1,29.89,WSW,253,21.3,26.7,88,0.00, ,,-99.99,VWS V12.07,2013-03-16 09:04:00,
2013-03-16 05:09:00,55.7,52.2,29.89,WSW,244,17.7,26.7,88,0.00, ,,-99.99,VWS V12.07,2013-03-16 09:09:00,
2013-03-16 05:14:00,55.7,52.4,29.89,WSW,258,19.4,26.7,88,0.00, ,,-99.99,VWS V12.07,2013-03-16 09:14:00,
2013-03-16 05:19:00,55.8,52.6,29.89,WSW,246,10.9,22.1,89,0.00, ,,-99.99,VWS V12.07,2013-03-16 09:19:00,
2013-03-16 05:24:00,55.3,52.2,29.89,WSW,247,13.9,25.0,89,0.00, ,,-99.99,VWS V12.07,2013-03-16 09:24:00,
2013-03-16 05:29:00,55.6,52.5,29.89,WSW,251,16.1,25.0,89,0.00, ,,-99.99,VWS V12.07,2013-03-16 09:29:00,
2013-03-16 05:34:00,55.1,52.2,29.89,WSW,239,13.3,25.0,90,0.00, ,,-99.99,VWS V12.07,2013-03-16 09:34:00,
2013-03-16 05:39:00,55.3,52.3,29.90,WSW,256,15.6,24.9,90,0.00, ,,-99.99,VWS V12.07,2013-03-16 09:39:00,
2013-03-16 05:44:00,55.1,52.2,29.90,SW,229,13.0,24.9,90,0.00, ,,-99.99,VWS V12.07,2013-03-16 09:44:00,
2013-03-16 05:49:00,55.3,52.5,29.90,SW,222,13.9,24.9,90,0.00, ,,-99.99,VWS V12.07,2013-03-16 09:49:00,
2013-03-16 05:54:00,55.3,52.5,29.90,SW,236,14.4,24.9,90,0.00, ,,-99.99,VWS V12.07,2013-03-16 09:54:00,
2013-03-16 05:59:00,55.2,52.5,29.90,SSW,202,10.6,19.3,91,0.00, ,,-99.99,VWS V12.07,2013-03-16 09:59:00,
2013-03-16 06:04:00,55.1,52.5,29.90,WSW,242,10.6,19.6,91,0.00, ,,-99.99,VWS V12.07,2013-03-16 10:04:00,
2013-03-16 06:09:00,55.4,52.7,29.90,SW,230,10.4,22.1,91,0.00, ,,-99.99,VWS V12.07,2013-03-16 10:09:00,
2013-03-16 06:14:00,55.1,52.4,29.90,SSW,201,13.8,22.1,91,0.00, ,,-99.99,VWS V12.07,2013-03-16 10:14:00,
2013-03-16 06:19:00,55.4,52.8,29.90,SSW,212,12.9,20.8,91,0.00, ,,-99.99,VWS V12.07,2013-03-16 10:19:00,
2013-03-16 06:25:00,55.4,52.9,29.90,SW,233,10.4,21.4,91,0.00, ,,-99.99,VWS V12.07,2013-03-16 10:25:00,
2013-03-16 06:30:00,55.0,52.4,29.90,SW,229,13.4,21.4,91,0.00, ,,-99.99,VWS V12.07,2013-03-16 10:30:00,
2013-03-16 06:35:00,55.6,53.0,29.90,SW,233,14.8,21.4,91,0.00, ,,-99.99,VWS V12.07,2013-03-16 10:35:00,
2013-03-16 06:41:00,55.1,52.4,29.90,SW,230,16.8,20.9,90,0.00, ,,-99.99,VWS V12.07,2013-03-16 10:41:00,
2013-03-16 06:47:00,55.2,52.2,29.90,WSW,243,11.0,20.9,90,0.00, ,,-99.99,VWS V12.07,2013-03-16 10:47:00,
2013-03-16 06:52:00,55.3,52.2,29.90,SW,218,13.2,20.9,89,0.00, ,,-99.99,VWS V12.07,2013-03-16 10:52:00,
2013-03-16 06:57:00,55.4,51.9,29.90,WSW,246,20.7,22.1,88,0.00, ,,-99.99,VWS V12.07,2013-03-16 10:57:00,
2013-03-16 07:02:00,55.5,51.7,29.90,WSW,243,14.6,24.0,87,0.00, ,,-99.99,VWS V12.07,2013-03-16 11:02:00,
2013-03-16 07:08:00,55.7,51.7,29.90,WSW,249,15.2,24.0,86,0.00, ,,-99.99,VWS V12.07,2013-03-16 11:08:00,
2013-03-16 07:13:00,55.7,51.5,29.90,WSW,244,15.4,24.0,86,0.00, ,,-99.99,VWS V12.07,2013-03-16 11:13:00,
2013-03-16 07:18:00,55.5,51.4,29.90,WSW,247,10.4,18.0,86,0.00, ,,-99.99,VWS V12.07,2013-03-16 11:18:00,
2013-03-16 07:23:00,55.8,51.5,29.90,SW,235,14.7,20.7,85,0.00, ,,-99.99,VWS V12.07,2013-03-16 11:23:00,
2013-03-16 07:29:00,55.4,51.2,29.90,WSW,239,13.9,21.7,86,0.00, ,,-99.99,VWS V12.07,2013-03-16 11:29:00,
2013-03-16 07:34:00,55.4,51.5,29.90,SSW,204,13.7,21.7,86,0.00, ,,-99.99,VWS V12.07,2013-03-16 11:34:00,
2013-03-16 07:39:00,55.2,51.3,29.90,WSW,242,15.9,19.5,87,0.00, ,,-99.99,VWS V12.07,2013-03-16 11:39:00,
2013-03-16 07:44:00,55.7,51.7,29.90,WSW,242,16.1,21.4,86,0.00, ,,-99.99,VWS V12.07,2013-03-16 11:44:00,
2013-03-16 07:49:00,55.4,51.5,29.90,SW,218,10.7,21.4,87,0.00, ,,-99.99,VWS V12.07,2013-03-16 11:49:00,
2013-03-16 07:55:00,55.5,51.3,29.90,SW,233,15.0,21.4,86,0.00, ,,-99.99,VWS V12.07,2013-03-16 11:55:00,
2013-03-16 08:00:00,55.5,51.4,29.90,SW,226,13.0,19.4,86,0.00, ,,-99.99,VWS V12.07,2013-03-16 12:00:00,
2013-03-16 08:07:00,55.9,51.8,29.90,WSW,247,13.3,21.3,86,0.00, ,,-99.99,VWS V12.07,2013-03-16 12:07:00,
2013-03-16 08:12:00,55.6,51.4,29.90,SW,220,11.7,21.3,86,0.00, ,,-99.99,VWS V12.07,2013-03-16 12:12:00,
2013-03-16 08:17:00,55.9,51.7,29.91,SSW,209,9.0,10.7,86,0.00, ,,-99.99,VWS V12.07,2013-03-16 12:17:00,
2013-03-16 08:22:00,56.0,51.6,29.90,SW,232,12.1,18.5,85,0.00, ,,-99.99,VWS V12.07,2013-03-16 12:22:00,
2013-03-16 08:27:00,56.1,51.9,29.91,WSW,243,10.8,20.4,86,0.00, ,,-99.99,VWS V12.07,2013-03-16 12:27:00,
2013-03-16 08:32:00,56.1,52.0,29.90,SW,235,14.4,20.4,86,0.00, ,,-99.99,VWS V12.07,2013-03-16 12:32:00,
2013-03-16 08:37:00,55.9,52.0,29.90,West,263,8.0,10.9,87,0.00, ,,-99.99,VWS V12.07,2013-03-16 12:37:00,
2013-03-16 08:42:00,56.5,52.2,29.90,SSW,209,8.3,18.1,86,0.00, ,,-99.99,VWS V12.07,2013-03-16 12:42:00,
2013-03-16 08:47:00,56.8,52.1,29.90,SW,220,13.8,18.1,84,0.00, ,,-99.99,VWS V12.07,2013-03-16 12:47:00,
2013-03-16 08:52:00,56.6,51.9,29.90,WSW,240,12.2,18.1,84,0.00, ,,-99.99,VWS V12.07,2013-03-16 12:52:00,
2013-03-16 08:58:00,57.0,52.1,29.90,WSW,250,7.7,12.8,84,0.00, ,,-99.99,VWS V12.07,2013-03-16 12:58:00,
2013-03-16 09:04:00,56.4,51.5,29.90,WSW,244,9.8,19.1,84,0.00, ,,-99.99,VWS V12.07,2013-03-16 13:04:00,
2013-03-16 09:09:00,56.8,52.2,29.90,SW,235,9.6,19.1,84,0.00, ,,-99.99,VWS V12.07,2013-03-16 13:09:00,
2013-03-16 09:14:00,56.4,51.9,29.90,WSW,244,11.8,19.1,85,0.00, ,,-99.99,VWS V12.07,2013-03-16 13:14:00,
2013-03-16 09:20:00,56.3,51.8,29.90,WSW,242,12.2,18.6,85,0.00, ,,-99.99,VWS V12.07,2013-03-16 13:20:00,
2013-03-16 09:25:00,56.0,51.6,29.90,SW,232,14.4,18.6,85,0.00, ,,-99.99,VWS V12.07,2013-03-16 13:25:00,
2013-03-16 09:30:00,56.4,51.7,29.90,WSW,242,14.2,19.8,84,0.00, ,,-99.99,VWS V12.07,2013-03-16 13:30:00,
2013-03-16 09:35:00,56.4,51.8,29.90,SW,223,14.4,19.8,84,0.00, ,,-99.99,VWS V12.07,2013-03-16 13:35:00,
2013-03-16 09:40:00,56.8,52.4,29.90,SW,223,18.5,20.8,85,0.00, ,,-99.99,VWS V12.07,2013-03-16 13:40:00,
2013-03-16 09:47:00,56.4,51.8,29.90,SW,230,12.5,20.8,85,0.00, ,,-99.99,VWS V12.07,2013-03-16 13:47:00,
2013-03-16 09:52:00,56.6,51.9,29.90,SW,219,11.3,22.2,84,0.00, ,,-99.99,VWS V12.07,2013-03-16 13:52:00,
2013-03-16 09:57:00,56.4,52.0,29.90,SW,225,14.4,15.2,85,0.00, ,,-99.99,VWS V12.07,2013-03-16 13:57:00,
2013-03-16 10:02:00,56.5,52.2,29.90,SW,219,13.5,21.6,85,0.00, ,,-99.99,VWS V12.07,2013-03-16 14:02:00,
2013-03-16 10:07:00,56.2,51.5,29.90,SW,236,11.6,21.6,84,0.00, ,,-99.99,VWS V12.07,2013-03-16 14:07:00,
2013-03-16 10:12:00,56.8,51.9,29.90,SW,222,14.2,22.0,84,0.00, ,,-99.99,VWS V12.07,2013-03-16 14:12:00,
2013-03-16 10:17:00,57.0,52.0,29.89,WSW,237,12.4,14.0,83,0.00, ,,-99.99,VWS V12.07,2013-03-16 14:17:00,
2013-03-16 10:22:00,56.7,51.9,29.89,SSW,209,14.4,18.3,84,0.00, ,,-99.99,VWS V12.07,2013-03-16 14:22:00,
2013-03-16 10:27:00,56.9,51.8,29.89,SW,215,11.6,22.1,83,0.00, ,,-99.99,VWS V12.07,2013-03-16 14:27:00,
2013-03-16 10:32:00,57.6,52.2,29.89,SW,216,15.3,22.1,82,0.00, ,,-99.99,VWS V12.07,2013-03-16 14:32:00,
2013-03-16 10:37:00,57.6,52.2,29.89,SSW,213,11.6,14.9,82,0.00, ,,-99.99,VWS V12.07,2013-03-16 14:37:00,
2013-03-16 10:43:00,57.6,52.3,29.89,SSW,198,14.1,21.4,82,0.00, ,,-99.99,VWS V12.07,2013-03-16 14:43:00,
2013-03-16 10:48:00,57.8,52.2,29.89,SW,229,16.5,21.4,82,0.00, ,,-99.99,VWS V12.07,2013-03-16 14:48:00,
2013-03-16 10:53:00,57.9,52.2,29.89,SW,232,14.7,21.7,81,0.00, ,,-99.99,VWS V12.07,2013-03-16 14:53:00,
2013-03-16 10:58:00,58.3,52.7,29.88,WSW,243,13.8,19.1,82,0.00, ,,-99.99,VWS V12.07,2013-03-16 14:58:00,
2013-03-16 11:03:00,58.4,52.6,29.88,SW,235,16.0,20.1,81,0.00, ,,-99.99,VWS V12.07,2013-03-16 15:03:00,
2013-03-16 11:09:00,58.6,52.6,29.88,SW,223,10.9,21.2,80,0.00, ,,-99.99,VWS V12.07,2013-03-16 15:09:00,
2013-03-16 11:14:00,58.8,52.1,29.88,SSW,206,11.1,21.2,78,0.00, ,,-99.99,VWS V12.07,2013-03-16 15:14:00,
2013-03-16 11:19:00,58.7,52.7,29.88,SW,215,13.0,16.3,80,0.00, ,,-99.99,VWS V12.07,2013-03-16 15:19:00,
2013-03-16 11:24:00,58.5,52.4,29.87,SW,233,13.6,20.6,80,0.00, ,,-99.99,VWS V12.07,2013-03-16 15:24:00,
2013-03-16 11:29:00,58.1,52.0,29.87,WSW,249,13.9,20.6,80,0.00, ,,-99.99,VWS V12.07,2013-03-16 15:29:00,
2013-03-16 11:34:00,58.4,52.0,29.87,WSW,246,11.9,20.6,79,0.00, ,,-99.99,VWS V12.07,2013-03-16 15:34:00,
2013-03-16 11:40:00,58.4,51.6,29.88,WSW,242,17.7,22.1,78,0.00, ,,-99.99,VWS V12.07,2013-03-16 15:40:00,
2013-03-16 11:45:00,59.0,51.3,29.87,SW,229,9.6,22.1,76,0.00, ,,-99.99,VWS V12.07,2013-03-16 15:45:00,
2013-03-16 11:50:00,59.4,51.3,29.87,WSW,244,12.6,22.1,74,0.00, ,,-99.99,VWS V12.07,2013-03-16 15:50:00,
2013-03-16 11:55:00,59.6,51.3,29.87,SSW,213,7.4,22.1,74,0.00, ,,-99.99,VWS V12.07,2013-03-16 15:55:00,
2013-03-16 12:00:00,59.4,51.8,29.87,SW,222,10.6,18.4,76,0.00, ,,-99.99,VWS V12.07,2013-03-16 16:00:00,
2013-03-16 12:05:00,58.8,51.9,29.87,West,274,13.5,19.7,78,0.00, ,,-99.99,VWS V12.07,2013-03-16 16:05:00,
2013-03-16 12:10:00,58.0,52.3,29.87,SSW,206,13.2,19.7,81,0.00, ,,-99.99,VWS V12.07,2013-03-16 16:10:00,
2013-03-16 12:16:00,57.4,52.1,29.86,SW,219,13.2,21.5,82,0.00, ,,-99.99,VWS V12.07,2013-03-16 16:16:00,
2013-03-16 12:21:00,57.2,52.5,29.86,SW,226,18.6,19.8,84,0.00, ,,-99.99,VWS V12.07,2013-03-16 16:21:00,
2013-03-16 12:27:00,57.3,52.6,29.86,SW,226,19.1,22.2,84,0.00, ,,-99.99,VWS V12.07,2013-03-16 16:27:00,
2013-03-16 12:32:00,57.9,52.3,29.86,SW,222,19.7,23.9,82,0.00, ,,-99.99,VWS V12.07,2013-03-16 16:32:00,
2013-03-16 12:38:00,58.0,52.2,29.86,SW,236,18.3,21.6,81,0.00, ,,-99.99,VWS V12.07,2013-03-16 16:38:00,
2013-03-16 12:44:00,57.1,52.2,29.86,SSW,206,16.7,22.5,84,0.00, ,,-99.99,VWS V12.07,2013-03-16 16:44:00,
2013-03-16 12:49:00,57.4,53.0,29.86,SSW,208,16.4,22.5,85,0.00, ,,-99.99,VWS V12.07,2013-03-16 16:49:00,
2013-03-16 12:54:00,57.4,52.9,29.86,SW,229,14.2,22.5,85,0.00, ,,-99.99,VWS V12.07,2013-03-16 16:54:00,
2013-03-16 12:59:00,57.7,53.3,29.85,South,181,14.7,20.2,85,0.00, ,,-99.99,VWS V12.07,2013-03-16 16:59:00,
2013-03-16 13:04:00,57.1,52.9,29.85,SSW,206,17.3,20.3,86,0.00, ,,-99.99,VWS V12.07,2013-03-16 17:04:00,
2013-03-16 13:09:00,57.7,53.5,29.85,SW,222,15.3,20.6,86,0.00, ,,-99.99,VWS V12.07,2013-03-16 17:09:00,
2013-03-16 13:14:00,57.6,53.4,29.85,SW,222,21.8,23.1,86,0.00, ,,-99.99,VWS V12.07,2013-03-16 17:14:00,
2013-03-16 13:20:00,57.6,53.6,29.84,SW,219,18.6,22.6,87,0.00, ,,-99.99,VWS V12.07,2013-03-16 17:20:00,
2013-03-16 13:25:00,57.8,53.4,29.84,SW,218,20.0,23.0,85,0.00, ,,-99.99,VWS V12.07,2013-03-16 17:25:00,
2013-03-16 13:30:00,57.9,53.7,29.84,SSW,212,21.1,24.4,86,0.00, ,,-99.99,VWS V12.07,2013-03-16 17:30:00,
2013-03-16 13:37:00,57.4,53.6,29.84,SW,219,18.8,20.8,87,0.00, ,,-99.99,VWS V12.07,2013-03-16 17:37:00,
2013-03-16 13:42:00,57.9,54.1,29.84,SSW,205,15.6,27.3,87,0.00, ,,-99.99,VWS V12.07,2013-03-16 17:42:00,
2013-03-16 13:47:00,57.7,53.7,29.83,SSW,208,22.6,27.3,86,0.00, ,,-99.99,VWS V12.07,2013-03-16 17:47:00,
2013-03-16 13:52:00,58.0,53.9,29.83,SW,230,25.2,28.8,86,0.00, ,,-99.99,VWS V12.07,2013-03-16 17:52:00,
2013-03-16 13:57:00,57.7,53.6,29.83,SW,233,23.2,24.5,86,0.00, ,,-99.99,VWS V12.07,2013-03-16 17:57:00,
2013-03-16 14:02:00,57.6,53.8,29.83,SW,218,20.1,28.3,87,0.00, ,,-99.99,VWS V12.07,2013-03-16 18:02:00,
2013-03-16 14:07:00,57.3,53.7,29.83,SW,220,21.3,28.3,88,0.00, ,,-99.99,VWS V12.07,2013-03-16 18:07:00,
2013-03-16 14:12:00,57.4,53.5,29.83,SSW,202,20.8,28.3,87,0.00, ,,-99.99,VWS V12.07,2013-03-16 18:12:00,
2013-03-16 14:17:00,57.4,53.4,29.82,SW,225,22.4,25.2,87,0.00, ,,-99.99,VWS V12.07,2013-03-16 18:17:00,
2013-03-16 14:22:00,57.1,53.3,29.82,SW,216,21.1,25.8,87,0.00, ,,-99.99,VWS V12.07,2013-03-16 18:22:00,
2013-03-16 14:27:00,57.5,53.5,29.82,SSW,208,19.7,27.2,87,0.00, ,,-99.99,VWS V12.07,2013-03-16 18:27:00,
2013-03-16 14:32:00,56.6,52.5,29.81,SW,219,21.5,29.0,86,0.00, ,,-99.99,VWS V12.07,2013-03-16 18:32:00,
2013-03-16 14:37:00,57.7,53.6,29.81,SW,226,21.2,25.0,86,0.00, ,,-99.99,VWS V12.07,2013-03-16 18:37:00,
2013-03-16 14:42:00,57.6,53.1,29.80,SW,222,27.0,31.1,85,0.00, ,,-99.99,VWS V12.07,2013-03-16 18:42:00,
2013-03-16 14:47:00,57.4,53.0,29.80,SSW,213,19.8,31.1,85,0.00, ,,-99.99,VWS V12.07,2013-03-16 18:47:00,
2013-03-16 14:52:00,57.6,53.1,29.80,SW,228,21.5,31.4,85,0.00, ,,-99.99,VWS V12.07,2013-03-16 18:52:00,
2013-03-16 14:58:00,58.0,53.8,29.80,SSW,211,21.1,29.6,86,0.00, ,,-99.99,VWS V12.07,2013-03-16 18:58:00,
2013-03-16 15:03:00,58.1,53.8,29.80,SW,226,22.6,29.6,86,0.00, ,,-99.99,VWS V12.07,2013-03-16 19:03:00,
2013-03-16 15:08:00,57.6,53.0,29.79,SSW,211,18.5,29.6,85,0.00, ,,-99.99,VWS V12.07,2013-03-16 19:08:00,
2013-03-16 15:13:00,58.2,53.6,29.79,SW,220,20.8,29.6,84,0.00, ,,-99.99,VWS V12.07,2013-03-16 19:13:00,
2013-03-16 15:18:00,58.3,53.9,29.79,SW,229,23.9,25.2,85,0.00, ,,-99.99,VWS V12.07,2013-03-16 19:18:00,
2013-03-16 15:23:00,58.0,53.5,29.79,SW,222,18.2,30.0,85,0.00, ,,-99.99,VWS V12.07,2013-03-16 19:23:00,
2013-03-16 15:28:00,57.8,53.3,29.79,SW,218,23.2,30.5,85,0.00, ,,-99.99,VWS V12.07,2013-03-16 19:28:00,
2013-03-16 15:33:00,58.2,53.7,29.79,SW,220,21.1,30.5,85,0.00, ,,-99.99,VWS V12.07,2013-03-16 19:33:00,
2013-03-16 15:38:00,57.9,52.9,29.79,SW,218,21.1,29.5,83,0.00, ,,-99.99,VWS V12.07,2013-03-16 19:38:00,
2013-03-16 15:43:00,58.3,53.9,29.79,SW,220,16.5,29.5,85,0.00, ,,-99.99,VWS V12.07,2013-03-16 19:43:00,
2013-03-16 15:48:00,58.4,53.2,29.79,SW,233,25.5,29.5,83,0.00, ,,-99.99,VWS V12.07,2013-03-16 19:48:00,
2013-03-16 15:53:00,58.5,53.1,29.79,SW,228,22.1,29.5,82,0.00, ,,-99.99,VWS V12.07,2013-03-16 19:53:00,
2013-03-16 15:58:00,58.7,53.5,29.79,SSW,205,16.9,23.7,83,0.00, ,,-99.99,VWS V12.07,2013-03-16 19:58:00,
2013-03-16 16:03:00,58.9,53.7,29.79,WSW,249,20.4,25.7,83,0.00, ,,-99.99,VWS V12.07,2013-03-16 20:03:00,
2013-03-16 16:08:00,58.9,53.8,29.79,WSW,257,22.2,27.2,83,0.00, ,,-99.99,VWS V12.07,2013-03-16 20:08:00,
2013-03-16 16:14:00,58.7,53.4,29.79,SW,228,23.1,30.0,82,0.00, ,,-99.99,VWS V12.07,2013-03-16 20:14:00,
2013-03-16 16:19:00,58.4,53.3,29.78,SW,218,18.3,30.1,83,0.00, ,,-99.99,VWS V12.07,2013-03-16 20:19:00,
2013-03-16 16:24:00,59.3,53.5,29.79,SW,218,16.0,30.1,81,0.00, ,,-99.99,VWS V12.07,2013-03-16 20:24:00,
2013-03-16 16:29:00,59.5,53.2,29.78,SW,226,11.5,30.1,80,0.00, ,,-99.99,VWS V12.07,2013-03-16 20:29:00,
2013-03-16 16:34:00,59.8,53.8,29.78,WSW,244,14.6,30.1,80,0.00, ,,-99.99,VWS V12.07,2013-03-16 20:34:00,
2013-03-16 16:39:00,59.3,53.7,29.78,SW,233,11.9,24.6,82,0.00, ,,-99.99,VWS V12.07,2013-03-16 20:39:00,
2013-03-16 16:45:00,59.5,53.7,29.78,SW,215,14.6,25.7,81,0.00, ,,-99.99,VWS V12.07,2013-03-16 20:45:00,
2013-03-16 16:50:00,59.1,53.5,29.78,SW,229,21.7,28.5,82,0.00, ,,-99.99,VWS V12.07,2013-03-16 20:50:00,
2013-03-16 16:55:00,58.8,53.7,29.77,SW,230,19.0,28.6,83,0.00, ,,-99.99,VWS V12.07,2013-03-16 20:55:00,
2013-03-16 17:02:00,59.3,54.1,29.77,WSW,242,17.0,27.4,83,0.00, ,,-99.99,VWS V12.07,2013-03-16 21:02:00,
2013-03-16 17:08:00,59.3,54.1,29.77,SW,226,15.6,28.4,83,0.00, ,,-99.99,VWS V12.07,2013-03-16 21:08:00,
2013-03-16 17:14:00,59.1,54.0,29.76,SW,225,21.7,29.8,83,0.00, ,,-99.99,VWS V12.07,2013-03-16 21:14:00,
2013-03-16 17:19:00,58.9,54.0,29.76,SW,233,24.5,29.1,84,0.00, ,,-99.99,VWS V12.07,2013-03-16 21:19:00,
2013-03-16 17:24:00,58.8,53.7,29.76,SSW,212,24.3,29.2,83,0.00, ,,-99.99,VWS V12.07,2013-03-16 21:24:00,
2013-03-16 17:29:00,59.2,54.0,29.77,SW,219,16.5,29.2,83,0.00, ,,-99.99,VWS V12.07,2013-03-16 21:29:00,
2013-03-16 17:34:00,59.1,54.0,29.76,SW,223,20.0,33.6,83,0.00, ,,-99.99,VWS V12.07,2013-03-16 21:34:00,
2013-03-16 17:39:00,58.9,54.0,29.76,WSW,237,27.6,34.4,84,0.00, ,,-99.99,VWS V12.07,2013-03-16 21:39:00,
2013-03-16 17:44:00,58.6,53.4,29.76,SSW,212,22.9,36.0,83,0.00, ,,-99.99,VWS V12.07,2013-03-16 21:44:00,
2013-03-16 17:49:00,59.1,54.0,29.76,SW,233,26.2,36.0,83,0.00, ,,-99.99,VWS V12.07,2013-03-16 21:49:00,
2013-03-16 17:55:00,58.5,53.8,29.76,WSW,239,25.5,36.0,84,0.00, ,,-99.99,VWS V12.07,2013-03-16 21:55:00,
2013-03-16 18:00:00,58.9,54.1,29.76,WSW,243,21.3,35.2,84,0.00, ,,-99.99,VWS V12.07,2013-03-16 22:00:00,
2013-03-16 18:05:00,59.1,54.3,29.76,WSW,239,19.1,35.2,84,0.00, ,,-99.99,VWS V12.07,2013-03-16 22:05:00,
2013-03-16 18:10:00,58.7,53.8,29.75,SW,233,31.9,35.2,84,0.00, ,,-99.99,VWS V12.07,2013-03-16 22:10:00,
2013-03-16 18:15:00,58.9,54.2,29.75,SW,228,27.6,39.3,84,0.00, ,,-99.99,VWS V12.07,2013-03-16 22:15:00,
2013-03-16 18:20:00,58.4,53.8,29.75,SW,219,29.0,35.7,85,0.00, ,,-99.99,VWS V12.07,2013-03-16 22:20:00,
2013-03-16 18:25:00,58.9,54.2,29.76,SW,232,30.1,37.6,84,0.00, ,,-99.99,VWS V12.07,2013-03-16 22:25:00,
2013-03-16 18:30:00,58.7,53.9,29.76,SW,229,26.9,37.6,84,0.00, ,,-99.99,VWS V12.07,2013-03-16 22:30:00,
2013-03-16 18:35:00,58.4,53.9,29.76,SW,228,27.1,37.6,85,0.00, ,,-99.99,VWS V12.07,2013-03-16 22:35:00,
2013-03-16 18:40:00,58.6,54.1,29.75,SW,233,24.0,40.0,85,0.00, ,,-99.99,VWS V12.07,2013-03-16 22:40:00,
2013-03-16 18:45:00,58.3,54.0,29.76,SW,222,26.7,40.0,86,0.00, ,,-99.99,VWS V12.07,2013-03-16 22:45:00,
2013-03-16 18:50:00,58.4,54.0,29.76,SW,230,29.9,40.3,85,0.00, ,,-99.99,VWS V12.07,2013-03-16 22:50:00,
2013-03-16 18:56:00,58.5,54.3,29.76,SW,233,26.0,40.3,86,0.00, ,,-99.99,VWS V12.07,2013-03-16 22:56:00,
2013-03-16 19:02:00,58.2,53.9,29.76,SW,233,20.0,38.0,86,0.00, ,,-99.99,VWS V12.07,2013-03-16 23:02:00,
2013-03-16 19:07:00,58.6,54.0,29.76,SW,230,21.0,38.0,85,0.00, ,,-99.99,VWS V12.07,2013-03-16 23:07:00,
2013-03-16 19:12:00,58.5,54.1,29.76,WSW,244,30.3,38.0,85,0.00, ,,-99.99,VWS V12.07,2013-03-16 23:12:00,
2013-03-16 19:18:00,58.2,53.7,29.76,SSW,213,18.5,33.8,85,0.00, ,,-99.99,VWS V12.07,2013-03-16 23:18:00,
2013-03-16 19:24:00,58.6,54.0,29.76,WSW,237,26.2,39.2,85,0.00, ,,-99.99,VWS V12.07,2013-03-16 23:24:00,
2013-03-16 19:29:00,58.2,53.5,29.76,SW,235,30.4,39.2,84,0.00, ,,-99.99,VWS V12.07,2013-03-16 23:29:00,
2013-03-16 19:34:00,58.3,53.6,29.76,SW,235,28.4,39.2,84,0.00, ,,-99.99,VWS V12.07,2013-03-16 23:34:00,
2013-03-16 19:39:00,58.5,53.8,29.76,SW,235,30.0,33.1,84,0.00, ,,-99.99,VWS V12.07,2013-03-16 23:39:00,
2013-03-16 19:44:00,58.8,53.9,29.77,SSW,205,20.3,33.1,84,0.00, ,,-99.99,VWS V12.07,2013-03-16 23:44:00,
2013-03-16 19:49:00,58.9,53.6,29.77,SW,233,26.8,34.7,83,0.00, ,,-99.99,VWS V12.07,2013-03-16 23:49:00,
2013-03-16 19:54:00,58.9,53.6,29.77,SW,230,24.5,37.5,83,0.00, ,,-99.99,VWS V12.07,2013-03-16 23:54:00,
2013-03-16 19:59:00,58.9,53.6,29.77,SSW,211,24.4,35.7,83,0.00, ,,-99.99,VWS V12.07,2013-03-16 23:59:00,
2013-03-16 20:04:00,59.1,53.7,29.77,WSW,247,27.6,37.7,82,0.00, ,,-99.99,VWS V12.07,2013-03-17 00:04:00,
2013-03-16 20:09:00,59.0,53.8,29.77,SW,229,30.4,37.7,83,0.00, ,,-99.99,VWS V12.07,2013-03-17 00:09:00,
2013-03-16 20:14:00,59.3,54.0,29.78,SSW,208,16.7,37.7,83,0.00, ,,-99.99,VWS V12.07,2013-03-17 00:14:00,
2013-03-16 20:19:00,59.3,53.9,29.78,SW,220,16.2,33.0,82,0.00, ,,-99.99,VWS V12.07,2013-03-17 00:19:00,
2013-03-16 20:24:00,59.0,53.7,29.79,SW,220,22.7,33.0,82,0.00, ,,-99.99,VWS V12.07,2013-03-17 00:24:00,
2013-03-16 20:29:00,58.7,53.4,29.79,SSW,211,23.1,33.0,83,0.00, ,,-99.99,VWS V12.07,2013-03-17 00:29:00,
2013-03-16 20:34:00,59.5,54.4,29.79,WSW,250,27.6,33.0,83,0.00, ,,-99.99,VWS V12.07,2013-03-17 00:34:00,
2013-03-16 20:39:00,58.8,53.6,29.79,SSW,208,19.9,31.8,83,0.00, ,,-99.99,VWS V12.07,2013-03-17 00:39:00,
2013-03-16 20:44:00,59.2,54.2,29.79,SW,229,24.8,31.8,83,0.00, ,,-99.99,VWS V12.07,2013-03-17 00:44:00,
2013-03-16 20:49:00,58.7,54.0,29.80,SW,226,20.6,31.8,84,0.00, ,,-99.99,VWS V12.07,2013-03-17 00:49:00,
2013-03-16 20:54:00,58.7,53.6,29.80,WSW,256,19.9,31.8,83,0.00, ,,-99.99,VWS V12.07,2013-03-17 00:54:00,
2013-03-16 20:59:00,58.9,53.6,29.81,WSW,247,18.5,28.1,83,0.00, ,,-99.99,VWS V12.07,2013-03-17 00:59:00,
2013-03-16 21:04:00,58.5,53.3,29.81,West,263,17.5,28.9,83,0.00, ,,-99.99,VWS V12.07,2013-03-17 01:04:00,
2013-03-16 21:10:00,58.5,53.4,29.82,WSW,250,24.3,28.9,83,0.00, ,,-99.99,VWS V12.07,2013-03-17 01:10:00,
2013-03-16 21:15:00,59.0,54.0,29.82,WSW,244,12.5,28.9,83,0.00, ,,-99.99,VWS V12.07,2013-03-17 01:15:00,
2013-03-16 21:20:00,58.8,53.8,29.82,WSW,242,18.5,23.8,84,0.00, ,,-99.99,VWS V12.07,2013-03-17 01:20:00,
2013-03-16 21:25:00,58.5,53.5,29.82,WSW,247,18.2,24.8,83,0.00, ,,-99.99,VWS V12.07,2013-03-17 01:25:00,
2013-03-16 21:30:00,58.9,54.0,29.82,WSW,239,13.4,29.0,84,0.00, ,,-99.99,VWS V12.07,2013-03-17 01:30:00,
2013-03-16 21:35:00,58.3,53.6,29.83,WSW,249,22.3,29.0,84,0.00, ,,-99.99,VWS V12.07,2013-03-17 01:35:00,
2013-03-16 21:40:00,58.4,53.8,29.83,WSW,258,10.4,25.0,84,0.00, ,,-99.99,VWS V12.07,2013-03-17 01:40:00,
2013-03-16 21:45:00,58.3,53.7,29.83,WSW,254,19.8,25.0,84,0.00, ,,-99.99,VWS V12.07,2013-03-17 01:45:00,
2013-03-16 21:50:00,58.7,53.9,29.83,WSW,247,17.8,25.5,84,0.00, ,,-99.99,VWS V12.07,2013-03-17 01:50:00,
2013-03-16 21:55:00,58.4,53.5,29.84,WSW,256,19.8,25.5,84,0.00, ,,-99.99,VWS V12.07,2013-03-17 01:55:00,
2013-03-16 22:00:00,58.6,53.7,29.84,SW,232,12.4,22.3,84,0.00, ,,-99.99,VWS V12.07,2013-03-17 02:00:00,
2013-03-16 22:07:00,58.7,53.8,29.84,West,265,13.2,22.3,84,0.00, ,,-99.99,VWS V12.07,2013-03-17 02:07:00,
2013-03-16 22:12:00,58.6,53.7,29.84,WSW,244,13.5,23.2,84,0.00, ,,-99.99,VWS V12.07,2013-03-17 02:12:00,
2013-03-16 22:17:00,58.8,53.9,29.85,WSW,239,12.9,16.0,84,0.00, ,,-99.99,VWS V12.07,2013-03-17 02:17:00,
2013-03-16 22:22:00,58.6,53.8,29.85,SW,226,12.1,23.2,84,0.00, ,,-99.99,VWS V12.07,2013-03-17 02:22:00,
2013-03-16 22:27:00,58.5,53.8,29.85,WSW,237,13.7,23.2,84,0.00, ,,-99.99,VWS V12.07,2013-03-17 02:27:00,
2013-03-16 22:32:00,58.6,54.0,29.85,WSW,253,17.3,23.2,85,0.00, ,,-99.99,VWS V12.07,2013-03-17 02:32:00,
2013-03-16 22:37:00,58.7,54.3,29.86,SW,236,17.3,21.6,85,0.00, ,,-99.99,VWS V12.07,2013-03-17 02:37:00,
2013-03-16 22:43:00,58.3,53.8,29.86,West,275,9.6,23.2,85,0.00, ,,-99.99,VWS V12.07,2013-03-17 02:43:00,
2013-03-16 22:48:00,58.6,54.2,29.86,WSW,249,12.2,23.2,85,0.00, ,,-99.99,VWS V12.07,2013-03-17 02:48:00,
2013-03-16 22:54:00,58.3,54.0,29.86,WSW,251,14.9,23.2,86,0.00, ,,-99.99,VWS V12.07,2013-03-17 02:54:00,
2013-03-16 23:00:00,58.0,53.6,29.86,West,264,11.7,19.0,85,0.00, ,,-99.99,VWS V12.07,2013-03-17 03:00:00,
2013-03-16 23:05:00,58.2,53.8,29.87,SW,232,13.5,22.5,85,0.00, ,,-99.99,VWS V12.07,2013-03-17 03:05:00,
2013-03-16 23:10:00,58.3,54.0,29.87,WSW,247,15.8,22.5,85,0.00, ,,-99.99,VWS V12.07,2013-03-17 03:10:00,
2013-03-16 23:15:00,58.3,54.1,29.87,WSW,247,15.0,22.5,86,0.00, ,,-99.99,VWS V12.07,2013-03-17 03:15:00,
2013-03-16 23:20:00,58.3,54.3,29.87,WSW,246,18.8,20.9,86,0.00, ,,-99.99,VWS V12.07,2013-03-17 03:20:00,
2013-03-16 23:25:00,57.9,53.9,29.87,WSW,257,12.7,20.9,86,0.00, ,,-99.99,VWS V12.07,2013-03-17 03:25:00,
2013-03-16 23:30:00,57.9,54.0,29.87,WSW,240,16.4,21.7,87,0.00, ,,-99.99,VWS V12.07,2013-03-17 03:30:00,
2013-03-16 23:35:00,57.7,54.0,29.87,WSW,253,10.6,23.2,87,0.00, ,,-99.99,VWS V12.07,2013-03-17 03:35:00,
2013-03-16 23:40:00,57.6,53.9,29.87,WSW,240,11.0,21.6,88,0.00, ,,-99.99,VWS V12.07,2013-03-17 03:40:00,
2013-03-16 23:45:00,57.6,54.0,29.87,SW,223,8.9,22.6,88,0.00, ,,-99.99,VWS V12.07,2013-03-17 03:45:00,
2013-03-16 23:50:00,56.9,53.4,29.87,WSW,244,13.9,22.6,88,0.00, ,,-99.99,VWS V12.07,2013-03-17 03:50:00,
2013-03-16 23:55:00,57.7,54.2,29.87,SW,226,12.7,22.6,88,0.00, ,,-99.99,VWS V12.07,2013-03-17 03:55:00,